DateTimeUTC,F1_A11,F1_S11,BsB_S11,BsG_S11,BsR_S11,BbsB_S11,BbsG_S11,BbsR_S11,BaB_A11,BaG_A11,BaR_A11,Tu_S11,T_S11,Uu_S11,U_S11,P_S11,T1_A11
2021-09-22T04:00:00Z,00000200,21000000,,,,,,,-000.32,0000.02,0000.19,18.6,25.4,,00.0,0653.1,31.0
2021-09-22T04:01:00Z,00000200,21000000,,,,,,,-000.50,-000.21,-000.45,18.5,25.4,,00.0,0653.1,31.0
2021-09-22T04:02:00Z,00000200,21000000,,,,,,,0000.38,-000.24,-000.19,18.5,25.4,,00.0,0653.1,31.0
2021-09-22T04:03:00Z,00000200,61000000,,,,,,,-000.17,0000.07,0000.07,18.5,25.4,,00.0,0653.1,31.0
2021-09-22T04:04:00Z,00000200,41000000,0001.29,0001.07,0000.33,0000.32,0000.20,0000.26,0000.41,0000.59,0000.25,18.5,25.1,,00.0,0653.9,30.9
2021-09-22T04:05:00Z,00000200,01000000,0001.84,0001.28,0000.68,0000.14,0000.08,0000.06,0000.35,0000.19,0000.48,18.4,25.0,,00.0,0654.0,31.0
2021-09-22T04:06:00Z,00000200,01000000,0001.96,0001.33,0000.65,0000.71,0000.00,0000.37,0000.39,0000.14,0000.25,18.5,25.0,,00.0,0654.0,31.0
2021-09-22T04:07:00Z,00000200,01000000,0001.65,0000.99,0000.62,0001.03,0000.13,0000.17,0000.61,0000.67,0000.33,18.5,25.0,,00.0,0654.0,31.0
2021-09-22T04:08:00Z,00000200,01000000,0001.69,0001.20,0000.56,0000.35,0000.23,-000.11,-000.25,0000.21,0000.01,18.6,25.1,,00.0,0654.0,31.0
2021-09-22T04:09:00Z,00000200,01000000,0002.04,0001.00,0000.69,0000.56,0000.14,0000.16,0000.41,0000.03,0000.17,18.6,25.1,,00.0,0654.0,31.0
2021-09-22T04:10:00Z,00000200,01000000,0002.12,0001.27,0000.75,0000.48,0000.22,0000.42,0000.17,0000.29,0000.38,18.6,25.1,,00.0,0654.0,31.0
2021-09-22T04:11:00Z,00000200,01000000,0001.45,0001.18,0000.62,0000.73,0000.36,0000.28,0000.34,0000.30,0000.30,18.7,25.1,,00.0,0654.0,31.0
2021-09-22T04:12:00Z,00000200,01000000,0002.28,0000.94,0000.34,0000.28,0000.08,-000.08,0000.44,0000.18,0000.25,18.7,25.1,,00.0,0654.1,31.0
2021-09-22T04:13:00Z,00000200,01000000,0000.77,0001.09,0000.65,-000.02,0000.25,0000.03,0000.25,0000.43,0000.15,18.8,25.1,,00.0,0654.0,31.0
2021-09-22T04:14:00Z,00000200,01000000,0001.01,0001.22,0000.73,0000.23,0000.31,0000.45,0000.08,0000.08,-000.03,18.8,25.1,,00.0,0654.1,31.0
2021-09-22T04:15:00Z,00000200,01000000,0002.28,0001.33,0000.46,0000.72,0000.35,0000.10,0000.12,0000.24,0000.43,18.8,25.2,,00.0,0654.1,31.0
2021-09-22T04:16:00Z,00000200,01000000,0002.23,0001.60,0000.33,0000.59,0000.11,0000.33,0000.37,0000.26,-000.17,18.8,25.2,,00.0,0654.1,31.0
2021-09-22T04:17:00Z,00000200,01000000,0001.45,0001.26,0000.40,0000.66,0000.12,0000.04,0000.17,-000.03,0000.36,18.7,25.2,,00.0,0654.1,31.0
2021-09-22T04:18:00Z,00000200,01000000,0002.04,0000.89,0000.55,0000.41,0000.35,0000.02,0000.38,0000.19,0000.02,18.7,25.1,,00.0,0654.0,31.0
2021-09-22T04:19:00Z,00000200,01000000,0002.28,0001.13,0000.84,-000.01,0000.39,0000.45,0000.16,0000.56,0000.34,18.6,25.1,,00.0,0654.1,31.0
2021-09-22T04:20:00Z,00000200,01000000,0001.65,0001.58,0000.67,0000.15,0000.29,0000.55,0000.38,0000.38,0000.24,18.6,25.1,,00.0,0654.1,31.0
2021-09-22T04:21:00Z,00000200,01000000,0001.09,0001.00,0000.49,0000.80,-000.04,-000.15,0000.47,0000.15,0000.08,18.6,25.1,,00.0,0654.0,31.0
2021-09-22T04:22:00Z,00000200,01000000,0001.99,0001.12,0000.53,0000.52,0000.39,0000.25,0000.29,0000.16,0000.55,18.6,25.1,,00.0,0654.1,31.0
2021-09-22T04:23:00Z,00000200,01000000,0001.67,0001.06,0000.20,0000.37,0000.35,0000.28,0000.28,0000.57,-000.06,18.7,25.1,,00.0,0654.1,31.0
2021-09-22T04:24:00Z,00000200,01000000,0001.92,0001.25,0000.63,0000.38,0000.22,-000.08,0000.35,0000.18,0000.86,18.7,25.1,,00.0,0654.0,31.0
2021-09-22T04:25:00Z,00000200,01000000,0001.49,0001.20,0000.10,-000.07,0000.52,0000.27,0000.51,0000.60,0000.05,18.8,25.1,,00.0,0654.1,31.0
2021-09-22T04:26:00Z,00000200,01000000,0000.69,0001.01,0000.53,0000.11,0000.15,0000.18,-000.12,-000.17,-000.10,18.8,25.1,,00.0,0654.1,31.0
2021-09-22T04:27:00Z,00000200,01000000,0002.22,0001.44,0000.81,-000.53,0000.13,0000.04,0000.31,0000.43,0000.46,18.8,25.2,,00.0,0654.1,31.0
2021-09-22T04:28:00Z,00000200,01000000,0001.45,0001.26,0000.26,-000.05,0000.30,0000.11,0000.43,0000.67,0000.43,18.9,25.2,,00.0,0654.1,31.0
2021-09-22T04:29:00Z,00000200,01000000,0001.86,0001.41,0000.74,0000.09,0000.23,0000.12,0000.14,-000.18,0000.12,19.0,25.2,,00.0,0654.1,31.0
2021-09-22T04:30:00Z,00000200,01000000,0002.13,0001.15,0000.48,0000.60,0000.22,-000.11,0000.39,0000.48,0000.21,19.0,25.2,,00.0,0654.0,31.0
2021-09-22T04:31:00Z,00000200,01000000,0001.69,0001.06,0000.63,0000.62,0000.06,0000.34,0000.33,-000.19,-000.20,19.0,25.2,,00.0,0654.1,31.0
2021-09-22T04:32:00Z,00000200,01000000,0001.71,0001.68,0000.50,0000.80,0000.21,-000.11,-000.13,0000.03,0000.23,18.9,25.2,,00.0,0654.0,31.0
2021-09-22T04:33:00Z,00000200,01000000,0002.15,0001.01,0000.72,0000.18,0000.26,0000.16,0000.03,-000.09,-000.08,18.8,25.2,,00.0,0654.1,31.0
2021-09-22T04:34:00Z,00000200,01000000,0002.61,0001.27,0000.36,0000.14,0000.42,0000.49,0000.42,0000.32,0000.35,18.8,25.1,,00.0,0654.1,31.0
2021-09-22T04:35:00Z,00000200,01000000,0001.83,0000.93,0000.51,0000.06,-000.19,0000.31,0000.42,0000.18,0000.16,18.7,25.1,,00.0,0654.1,31.0
2021-09-22T04:36:00Z,00000200,01000000,0001.34,0001.05,0000.51,0000.20,0000.54,-000.18,0000.55,0000.95,0000.63,18.7,25.1,,00.0,0654.1,31.0
2021-09-22T04:37:00Z,00000200,01000000,0001.35,0000.93,0000.50,0000.97,0000.34,0000.25,-000.04,0000.30,-000.03,18.8,25.1,,00.0,0654.1,31.0
2021-09-22T04:38:00Z,00000200,01000000,0001.78,0000.93,0000.13,0000.38,0000.32,0000.40,0000.39,0000.05,0000.09,18.8,25.2,,00.0,0654.2,31.0
2021-09-22T04:39:00Z,00000200,01000000,0001.50,0000.83,0000.32,0000.07,0000.06,-000.08,0000.20,0000.18,0000.53,18.9,25.2,,00.0,0654.1,31.0
2021-09-22T04:40:00Z,00000200,01000000,0001.63,0001.26,0000.63,0000.24,0000.18,0000.25,0000.55,0000.58,0000.24,18.9,25.2,,00.0,0654.2,31.0
2021-09-22T04:41:00Z,00000200,01000000,0002.38,0001.59,0000.32,0000.66,0000.01,-000.13,0000.07,0000.21,0000.17,18.9,25.2,,00.0,0654.2,31.0
2021-09-22T04:42:00Z,00000200,01000000,0001.06,0001.01,0000.34,0000.31,0000.26,-000.01,0000.33,0000.26,0000.31,19.0,25.2,,00.0,0654.2,31.0
2021-09-22T04:43:00Z,00000200,01000000,0001.64,0000.90,0000.49,0000.79,0000.45,0000.16,0000.20,-000.11,0000.16,19.1,25.3,,00.0,0654.2,31.0
2021-09-22T04:44:00Z,00000200,01000000,0002.28,0001.07,0000.75,-000.12,0000.32,0000.26,0000.12,0000.34,-000.09,19.1,25.3,,00.0,0654.2,31.0
2021-09-22T04:45:00Z,00000200,01000000,0001.18,0001.02,0000.48,0000.12,0000.15,-000.14,0000.30,-000.05,0000.26,19.1,25.3,,00.0,0654.2,31.0
2021-09-22T04:46:00Z,00000200,01000000,0002.33,0001.32,0000.95,0000.65,0000.31,0000.27,-000.06,0000.02,0000.06,19.0,25.3,,00.0,0654.2,31.0
2021-09-22T04:47:00Z,00000200,01000000,0001.62,0001.38,0000.74,0000.77,0000.39,0000.16,0000.14,0000.30,-000.41,18.9,25.2,,00.0,0654.2,31.0
2021-09-22T04:48:00Z,00000200,01000000,0001.46,0001.01,0000.68,0000.44,0000.34,0000.34,0000.18,0000.50,0000.92,18.8,25.2,,00.0,0654.1,31.0
2021-09-22T04:49:00Z,00000200,01000000,0002.36,0000.91,0000.71,0000.63,0000.42,0000.01,0000.74,0000.06,-000.12,18.7,25.1,,00.0,0654.2,30.9
2021-09-22T04:50:00Z,00000200,01000000,0001.53,0000.96,0000.30,0000.04,0000.23,-000.07,-000.01,0000.45,0000.28,18.7,25.1,,00.0,0654.2,30.9
2021-09-22T04:51:00Z,00000200,01000000,0002.08,0001.08,0000.60,0000.52,-000.03,0000.19,0000.54,0000.25,0000.19,18.7,25.1,,00.0,0654.2,31.0
2021-09-22T04:52:00Z,00000200,01000000,0001.06,0001.17,0000.42,0000.38,0000.19,-000.14,-000.06,-000.08,0000.38,18.8,25.1,,00.0,0654.2,31.0
2021-09-22T04:53:00Z,00000200,01000000,0001.11,0001.15,0000.25,0000.61,0000.08,0000.20,0000.86,0000.57,0000.29,18.8,25.1,,00.0,0654.2,31.0
2021-09-22T04:54:00Z,00000200,01000000,0001.95,0000.93,0001.01,0000.22,0000.07,-000.01,-000.01,0000.35,0000.29,18.9,25.2,,00.0,0654.2,31.0
2021-09-22T04:55:00Z,00000200,01000000,0001.97,0000.99,0000.67,0000.22,0000.01,0000.13,0000.50,0000.42,-000.01,18.9,25.2,,00.0,0654.2,31.0
2021-09-22T04:56:00Z,00000200,01000000,0001.73,0001.03,0000.22,0000.62,0000.42,0000.21,-000.27,-000.08,0000.25,19.0,25.2,,00.0,0654.2,31.0
2021-09-22T04:57:00Z,00000200,41000000,,,,,,,0000.17,-000.14,-000.22,19.0,25.3,,00.0,0654.1,31.0
2021-09-22T04:58:00Z,00000200,61000000,,,,,,,-000.27,-000.16,0000.09,18.8,25.4,,00.0,0653.3,31.0
2021-09-22T04:59:00Z,00000200,21000000,,,,,,,0000.00,-000.16,0000.07,18.7,25.5,,00.0,0653.3,31.0
